Time,TemperatureF,DewpointF,PressureIn,WindDirection,WindDirectionDegrees,WindSpeedMPH,WindSpeedGustMPH,Humidity,HourlyPrecipIn,Conditions,Clouds,dailyrainin,SolarRadiationWatts/m^2,SoftwareType,DateUTC
2013-02-08 00:01:00,38.2,27.5,30.00,WNW,289,4.0,4.0,65,0.00,,,0.00,0,Wunderground v.1.15,2013-02-08 07:01:00,
2013-02-08 00:07:00,38.0,27.3,30.01,WNW,294,4.0,4.0,65,0.00,,,0.00,0,Wunderground v.1.15,2013-02-08 07:07:00,
2013-02-08 00:13:00,37.3,27.0,30.01,WNW,292,4.0,5.0,66,0.00,,,0.00,0,Wunderground v.1.15,2013-02-08 07:13:00,
2013-02-08 00:19:00,37.1,27.2,30.00,WNW,302,4.0,6.0,67,0.00,,,0.00,0,Wunderground v.1.15,2013-02-08 07:19:00,
2013-02-08 00:24:00,37.2,27.2,30.00,WNW,302,3.0,4.0,67,0.00,,,0.00,0,Wunderground v.1.15,2013-02-08 07:24:00,
2013-02-08 00:29:00,36.9,27.0,30.00,WNW,300,3.0,4.0,67,0.00,,,0.00,0,Wunderground v.1.15,2013-02-08 07:29:00,
2013-02-08 00:34:00,36.5,27.3,30.00,WNW,298,3.0,3.0,69,0.00,,,0.00,0,Wunderground v.1.15,2013-02-08 07:34:00,
2013-02-08 00:40:00,36.2,27.0,30.00,WNW,292,3.0,3.0,69,0.00,,,0.00,0,Wunderground v.1.15,2013-02-08 07:40:00,
2013-02-08 00:45:00,35.8,27.0,30.01,WNW,297,3.0,5.0,70,0.00,,,0.00,0,Wunderground v.1.15,2013-02-08 07:45:00,
2013-02-08 00:50:00,35.6,26.8,30.00,NW,304,3.0,3.0,70,0.00,,,0.00,0,Wunderground v.1.15,2013-02-08 07:50:00,
2013-02-08 00:55:00,35.5,26.7,30.00,WNW,300,3.0,4.0,70,0.00,,,0.00,0,Wunderground v.1.15,2013-02-08 07:55:00,
2013-02-08 01:01:00,35.5,27.0,30.00,WNW,300,3.0,4.0,71,0.00,,,0.00,0,Wunderground v.1.15,2013-02-08 08:01:00,
2013-02-08 01:07:00,35.8,27.0,30.00,WNW,302,3.0,4.0,70,0.00,,,0.00,0,Wunderground v.1.15,2013-02-08 08:07:00,
2013-02-08 01:12:00,36.1,27.3,30.00,WNW,302,3.0,4.0,70,0.00,,,0.00,0,Wunderground v.1.15,2013-02-08 08:12:00,
2013-02-08 01:17:00,36.1,27.3,30.00,WNW,290,3.0,4.0,70,0.00,,,0.00,0,Wunderground v.1.15,2013-02-08 08:17:00,
2013-02-08 01:23:00,35.9,27.1,30.00,WNW,297,4.0,4.0,70,0.00,,,0.00,0,Wunderground v.1.15,2013-02-08 08:23:00,
2013-02-08 01:30:00,36.2,27.0,30.01,WNW,300,4.0,4.0,69,0.00,,,0.00,0,Wunderground v.1.15,2013-02-08 08:30:00,
2013-02-08 01:35:00,36.7,27.1,30.01,WNW,299,4.0,5.0,68,0.00,,,0.00,0,Wunderground v.1.15,2013-02-08 08:35:00,
2013-02-08 01:41:00,36.7,26.8,30.00,WNW,294,4.0,4.0,67,0.00,,,0.00,0,Wunderground v.1.15,2013-02-08 08:41:00,
2013-02-08 01:46:00,36.8,26.9,30.00,WNW,294,3.0,4.0,67,0.00,,,0.00,0,Wunderground v.1.15,2013-02-08 08:46:00,
2013-02-08 01:53:00,36.4,26.8,30.00,WNW,291,3.0,4.0,68,0.00,,,0.00,0,Wunderground v.1.15,2013-02-08 08:53:00,
2013-02-08 01:58:00,36.3,27.1,30.00,WNW,302,3.0,4.0,69,0.00,,,0.00,0,Wunderground v.1.15,2013-02-08 08:58:00,
2013-02-08 02:03:00,36.4,26.8,29.99,WNW,299,1.0,3.0,68,0.00,,,0.00,0,Wunderground v.1.15,2013-02-08 09:03:00,
2013-02-08 02:09:00,36.6,26.7,29.99,NW,309,2.0,3.0,67,0.00,,,0.00,0,Wunderground v.1.15,2013-02-08 09:09:00,
2013-02-08 02:15:00,36.6,26.7,29.99,NW,310,2.0,2.0,67,0.00,,,0.00,0,Wunderground v.1.15,2013-02-08 09:15:00,
2013-02-08 02:20:00,37.0,26.7,29.99,NW,310,1.0,2.0,66,0.00,,,0.00,0,Wunderground v.1.15,2013-02-08 09:20:00,
2013-02-08 02:25:00,37.6,26.5,29.98,West,277,1.0,1.0,64,0.00,,,0.00,0,Wunderground v.1.15,2013-02-08 09:25:00,
2013-02-08 02:30:00,39.0,26.3,29.98,West,277,0.0,1.0,60,0.00,,,0.00,0,Wunderground v.1.15,2013-02-08 09:30:00,
2013-02-08 02:35:00,40.4,25.9,29.98,West,277,0.0,0.0,56,0.00,,,0.00,0,Wunderground v.1.15,2013-02-08 09:35:00,
2013-02-08 02:40:00,41.3,25.9,29.97,West,277,0.0,0.0,54,0.00,,,0.00,0,Wunderground v.1.15,2013-02-08 09:40:00,
2013-02-08 02:46:00,41.9,25.1,29.97,West,277,0.0,2.0,51,0.00,,,0.00,0,Wunderground v.1.15,2013-02-08 09:46:00,
2013-02-08 02:51:00,42.6,25.2,29.97,West,270,0.0,0.0,50,0.00,,,0.00,0,Wunderground v.1.15,2013-02-08 09:51:00,
2013-02-08 02:56:00,43.1,25.2,29.97,West,270,0.0,2.0,49,0.00,,,0.00,0,Wunderground v.1.15,2013-02-08 09:56:00,
2013-02-08 03:01:00,43.8,25.4,29.97,WSW,249,1.0,4.0,48,0.00,,,0.00,0,Wunderground v.1.15,2013-02-08 10:01:00,
2013-02-08 03:06:00,45.3,25.7,29.97,WSW,250,3.0,4.0,46,0.00,,,0.00,0,Wunderground v.1.15,2013-02-08 10:06:00,
2013-02-08 03:11:00,46.1,24.8,29.97,WSW,252,3.0,3.0,43,0.00,,,0.00,0,Wunderground v.1.15,2013-02-08 10:11:00,
2013-02-08 03:16:00,46.0,25.3,29.97,SW,223,1.0,3.0,44,0.00,,,0.00,0,Wunderground v.1.15,2013-02-08 10:16:00,
2013-02-08 03:22:00,45.1,25.0,29.97,SW,223,0.0,0.0,45,0.00,,,0.00,0,Wunderground v.1.15,2013-02-08 10:22:00,
2013-02-08 03:27:00,44.2,24.7,29.96,SW,223,0.0,2.0,46,0.00,,,0.00,0,Wunderground v.1.15,2013-02-08 10:27:00,
2013-02-08 03:33:00,43.6,24.7,29.96,SW,223,1.0,2.0,47,0.00,,,0.00,0,Wunderground v.1.15,2013-02-08 10:33:00,
2013-02-08 03:38:00,43.4,24.0,29.96,SW,223,1.0,3.0,46,0.00,,,0.00,0,Wunderground v.1.15,2013-02-08 10:38:00,
2013-02-08 03:44:00,43.9,24.4,29.96,SW,223,1.0,2.0,46,0.00,,,0.00,0,Wunderground v.1.15,2013-02-08 10:44:00,
2013-02-08 03:49:00,44.8,24.7,29.96,WSW,250,2.0,4.0,45,0.00,,,0.00,0,Wunderground v.1.15,2013-02-08 10:49:00,
2013-02-08 03:54:00,45.5,24.3,29.96,WSW,250,3.0,4.0,43,0.00,,,0.00,0,Wunderground v.1.15,2013-02-08 10:54:00,
2013-02-08 04:00:00,45.8,24.0,29.96,WSW,250,3.0,3.0,42,0.00,,,0.00,0,Wunderground v.1.15,2013-02-08 11:00:00,
2013-02-08 04:05:00,45.8,24.0,29.96,WSW,250,3.0,4.0,42,0.00,,,0.00,0,Wunderground v.1.15,2013-02-08 11:05:00,
2013-02-08 04:10:00,45.6,23.8,29.96,WSW,252,3.0,4.0,42,0.00,,,0.00,0,Wunderground v.1.15,2013-02-08 11:10:00,
2013-02-08 04:15:00,45.5,23.7,29.96,West,260,3.0,4.0,42,0.00,,,0.00,0,Wunderground v.1.15,2013-02-08 11:15:00,
2013-02-08 04:20:00,45.7,23.3,29.96,WSW,257,4.0,4.0,41,0.00,,,0.00,0,Wunderground v.1.15,2013-02-08 11:20:00,
2013-02-08 04:26:00,45.8,23.4,29.95,WSW,251,4.0,5.0,41,0.00,,,0.00,0,Wunderground v.1.15,2013-02-08 11:26:00,
2013-02-08 04:31:00,45.9,22.9,29.95,WSW,241,4.0,4.0,40,0.00,,,0.00,0,Wunderground v.1.15,2013-02-08 11:31:00,
2013-02-08 04:36:00,45.8,23.4,29.95,WSW,243,4.0,4.0,41,0.00,,,0.00,0,Wunderground v.1.15,2013-02-08 11:36:00,
2013-02-08 04:41:00,45.4,23.0,29.95,WSW,248,4.0,4.0,41,0.00,,,0.00,0,Wunderground v.1.15,2013-02-08 11:41:00,
2013-02-08 04:47:00,45.1,22.8,29.95,WSW,248,3.0,4.0,41,0.00,,,0.00,0,Wunderground v.1.15,2013-02-08 11:47:00,
2013-02-08 04:52:00,45.0,22.7,29.95,WSW,255,3.0,5.0,41,0.00,,,0.00,0,Wunderground v.1.15,2013-02-08 11:52:00,
2013-02-08 04:57:00,45.4,22.5,29.95,WSW,252,4.0,6.0,40,0.00,,,0.00,0,Wunderground v.1.15,2013-02-08 11:57:00,
2013-02-08 05:03:00,45.8,22.2,29.95,WSW,246,4.0,5.0,39,0.00,,,0.00,0,Wunderground v.1.15,2013-02-08 12:03:00,
2013-02-08 05:09:00,45.8,22.2,29.95,WSW,250,4.0,5.0,39,0.00,,,0.00,0,Wunderground v.1.15,2013-02-08 12:09:00,
2013-02-08 05:14:00,45.7,22.1,29.95,WSW,242,4.0,4.0,39,0.00,,,0.00,0,Wunderground v.1.15,2013-02-08 12:14:00,
2013-02-08 05:20:00,45.4,22.5,29.94,WSW,244,3.0,3.0,40,0.00,,,0.00,0,Wunderground v.1.15,2013-02-08 12:20:00,
2013-02-08 05:25:00,45.0,22.1,29.94,WSW,246,3.0,4.0,40,0.00,,,0.00,0,Wunderground v.1.15,2013-02-08 12:25:00,
2013-02-08 05:31:00,44.7,22.4,29.95,WSW,246,3.0,3.0,41,0.00,,,0.00,0,Wunderground v.1.15,2013-02-08 12:31:00,
2013-02-08 05:36:00,44.3,22.1,29.94,WSW,246,3.0,4.0,41,0.00,,,0.00,0,Wunderground v.1.15,2013-02-08 12:36:00,
2013-02-08 05:42:00,43.9,22.3,29.94,WSW,246,3.0,3.0,42,0.00,,,0.00,0,Wunderground v.1.15,2013-02-08 12:42:00,
2013-02-08 05:47:00,43.4,22.4,29.94,WSW,246,2.0,3.0,43,0.00,,,0.00,0,Wunderground v.1.15,2013-02-08 12:47:00,
2013-02-08 05:53:00,42.8,21.8,29.94,WSW,246,2.0,3.0,43,0.00,,,0.00,0,Wunderground v.1.15,2013-02-08 12:53:00,
2013-02-08 05:58:00,42.9,21.9,29.94,WSW,246,2.0,3.0,43,0.00,,,0.00,0,Wunderground v.1.15,2013-02-08 12:58:00,
2013-02-08 06:04:00,42.7,22.3,29.94,WSW,246,1.0,3.0,44,0.00,,,0.00,0,Wunderground v.1.15,2013-02-08 13:04:00,
2013-02-08 06:09:00,42.6,22.2,29.94,WSW,246,2.0,3.0,44,0.00,,,0.00,0,Wunderground v.1.15,2013-02-08 13:09:00,
2013-02-08 06:15:00,42.5,22.1,29.93,SW,231,2.0,3.0,44,0.00,,,0.00,0,Wunderground v.1.15,2013-02-08 13:15:00,
2013-02-08 06:20:00,42.7,21.7,29.93,SW,225,2.0,2.0,43,0.00,,,0.00,0,Wunderground v.1.15,2013-02-08 13:20:00,
2013-02-08 06:25:00,42.6,21.6,29.93,SW,225,2.0,2.0,43,0.00,,,0.00,0,Wunderground v.1.15,2013-02-08 13:25:00,
2013-02-08 06:30:00,42.5,21.5,29.93,SW,225,1.0,2.0,43,0.00,,,0.00,0,Wunderground v.1.15,2013-02-08 13:30:00,
2013-02-08 06:36:00,42.4,21.5,29.93,SW,225,2.0,3.0,43,0.00,,,0.00,0,Wunderground v.1.15,2013-02-08 13:36:00,
2013-02-08 06:42:00,42.5,21.5,29.93,SW,234,2.0,2.0,43,0.00,,,0.00,0,Wunderground v.1.15,2013-02-08 13:42:00,
2013-02-08 06:47:00,42.5,21.5,29.93,SW,234,1.0,2.0,43,0.00,,,0.00,0,Wunderground v.1.15,2013-02-08 13:47:00,
2013-02-08 06:53:00,42.5,21.0,29.93,SW,234,1.0,1.0,42,0.00,,,0.00,0,Wunderground v.1.15,2013-02-08 13:53:00,
2013-02-08 06:58:00,42.5,21.5,29.93,SW,234,1.0,3.0,43,0.00,,,0.00,0,Wunderground v.1.15,2013-02-08 13:58:00,
2013-02-08 07:03:00,42.4,20.9,29.93,SW,234,1.0,1.0,42,0.00,,,0.00,0,Wunderground v.1.15,2013-02-08 14:03:00,
2013-02-08 07:08:00,42.4,20.9,29.93,SW,234,1.0,1.0,42,0.00,,,0.00,0,Wunderground v.1.15,2013-02-08 14:08:00,
2013-02-08 07:14:00,42.9,20.2,29.93,SW,234,1.0,1.0,40,0.00,,,0.00,7,Wunderground v.1.15,2013-02-08 14:14:00,
2013-02-08 07:20:00,43.1,20.4,29.93,SW,234,0.0,1.0,40,0.00,,,0.00,14,Wunderground v.1.15,2013-02-08 14:20:00,
2013-02-08 07:25:00,43.4,20.7,29.93,SW,234,0.0,1.0,40,0.00,,,0.00,21,Wunderground v.1.15,2013-02-08 14:25:00,
2013-02-08 07:30:00,43.5,21.3,29.93,SW,234,0.0,1.0,41,0.00,,,0.00,30,Wunderground v.1.15,2013-02-08 14:30:00,
2013-02-08 07:36:00,43.8,21.6,29.93,SW,234,0.0,1.0,41,0.00,,,0.00,47,Wunderground v.1.15,2013-02-08 14:36:00,
2013-02-08 07:42:00,43.7,22.1,29.93,SW,234,0.0,1.0,42,0.00,,,0.00,54,Wunderground v.1.15,2013-02-08 14:42:00,
2013-02-08 07:48:00,42.9,21.9,29.93,NNE,28,1.0,2.0,43,0.00,,,0.00,70,Wunderground v.1.15,2013-02-08 14:48:00,
2013-02-08 07:54:00,42.4,22.0,29.93,NNE,28,1.0,2.0,44,0.00,,,0.00,100,Wunderground v.1.15,2013-02-08 14:54:00,
2013-02-08 07:59:00,42.5,23.7,29.93,NNE,25,1.0,3.0,47,0.00,,,0.00,88,Wunderground v.1.15,2013-02-08 14:59:00,
2013-02-08 08:04:00,42.8,24.9,29.93,NNE,25,1.0,1.0,49,0.00,,,0.00,114,Wunderground v.1.15,2013-02-08 15:04:00,
2013-02-08 08:09:00,43.2,24.8,29.93,NNE,25,0.0,1.0,48,0.00,,,0.00,113,Wunderground v.1.15,2013-02-08 15:09:00,
2013-02-08 08:14:00,43.7,23.2,29.93,NNE,25,0.0,0.0,44,0.00,,,0.00,162,Wunderground v.1.15,2013-02-08 15:14:00,
2013-02-08 08:20:00,44.7,22.4,29.93,NNE,25,0.0,0.0,41,0.00,,,0.00,142,Wunderground v.1.15,2013-02-08 15:20:00,
2013-02-08 08:25:00,45.9,23.5,29.93,NNE,25,0.0,1.0,41,0.00,,,0.00,149,Wunderground v.1.15,2013-02-08 15:25:00,
2013-02-08 08:30:00,47.0,25.1,29.93,NNE,19,1.0,1.0,42,0.00,,,0.00,153,Wunderground v.1.15,2013-02-08 15:30:00,
2013-02-08 08:35:00,48.4,24.6,29.93,West,261,1.0,2.0,39,0.00,,,0.00,160,Wunderground v.1.15,2013-02-08 15:35:00,
2013-02-08 08:41:00,49.4,26.1,29.93,SSE,165,1.0,2.0,40,0.00,,,0.00,225,Wunderground v.1.15,2013-02-08 15:41:00,
2013-02-08 08:46:00,50.0,24.7,29.93,SSE,165,0.0,2.0,37,0.00,,,0.00,207,Wunderground v.1.15,2013-02-08 15:46:00,
2013-02-08 08:52:00,50.7,24.0,29.93,SSE,154,0.0,1.0,35,0.00,,,0.00,248,Wunderground v.1.15,2013-02-08 15:52:00,
2013-02-08 08:57:00,51.5,26.1,29.93,SSE,154,1.0,2.0,37,0.00,,,0.00,232,Wunderground v.1.15,2013-02-08 15:57:00,
2013-02-08 09:02:00,51.9,24.4,29.93,SSE,154,0.0,1.0,34,0.00,,,0.00,260,Wunderground v.1.15,2013-02-08 16:02:00,
2013-02-08 09:08:00,52.6,24.3,29.93,SSE,154,0.0,2.0,33,0.00,,,0.00,239,Wunderground v.1.15,2013-02-08 16:08:00,
2013-02-08 09:13:00,53.0,23.9,29.93,SSE,154,1.0,1.0,32,0.00,,,0.00,216,Wunderground v.1.15,2013-02-08 16:13:00,
2013-02-08 09:18:00,53.2,23.3,29.93,SSE,154,0.0,1.0,31,0.00,,,0.00,334,Wunderground v.1.15,2013-02-08 16:18:00,
2013-02-08 09:23:00,53.6,22.1,29.92,SSE,154,0.0,0.0,29,0.00,,,0.00,279,Wunderground v.1.15,2013-02-08 16:23:00,
2013-02-08 09:29:00,53.9,22.3,29.93,SSE,154,0.0,1.0,29,0.00,,,0.00,418,Wunderground v.1.15,2013-02-08 16:29:00,
2013-02-08 09:34:00,54.3,21.8,29.93,SSE,154,1.0,2.0,28,0.00,,,0.00,417,Wunderground v.1.15,2013-02-08 16:34:00,
2013-02-08 09:39:00,54.8,23.1,29.93,SE,126,1.0,4.0,29,0.00,,,0.00,318,Wunderground v.1.15,2013-02-08 16:39:00,
2013-02-08 09:44:00,55.0,21.6,29.93,ESE,121,2.0,4.0,27,0.00,,,0.00,329,Wunderground v.1.15,2013-02-08 16:44:00,
2013-02-08 09:50:00,55.2,19.9,29.93,SSW,192,3.0,5.0,25,0.00,,,0.00,563,Wunderground v.1.15,2013-02-08 16:50:00,
2013-02-08 09:55:00,55.5,20.2,29.93,SSW,213,3.0,5.0,25,0.00,,,0.00,436,Wunderground v.1.15,2013-02-08 16:55:00,
2013-02-08 10:00:00,55.5,20.2,29.93,South,186,3.0,3.0,25,0.00,,,0.00,318,Wunderground v.1.15,2013-02-08 17:00:00,
2013-02-08 10:06:00,55.8,19.5,29.93,SSW,192,4.0,5.0,24,0.00,,,0.00,534,Wunderground v.1.15,2013-02-08 17:06:00,
2013-02-08 10:11:00,56.4,18.0,29.92,SW,223,5.0,14.0,22,0.00,,,0.00,383,Wunderground v.1.15,2013-02-08 17:11:00,
2013-02-08 10:16:00,56.4,20.0,29.93,SW,229,8.0,14.0,24,0.00,,,0.00,390,Wunderground v.1.15,2013-02-08 17:16:00,
2013-02-08 10:21:00,56.4,19.0,29.92,SSW,208,10.0,10.0,23,0.00,,,0.00,422,Wunderground v.1.15,2013-02-08 17:21:00,
2013-02-08 10:27:00,56.8,18.3,29.92,WSW,244,11.0,15.0,22,0.00,,,0.00,457,Wunderground v.1.15,2013-02-08 17:27:00,
2013-02-08 10:32:00,56.7,19.3,29.92,SSW,205,12.0,20.0,23,0.00,,,0.00,469,Wunderground v.1.15,2013-02-08 17:32:00,
2013-02-08 10:37:00,57.0,18.5,29.92,SSW,198,13.0,20.0,22,0.00,,,0.00,413,Wunderground v.1.15,2013-02-08 17:37:00,
2013-02-08 10:43:00,56.9,19.4,29.92,SSW,200,12.0,14.0,23,0.00,,,0.00,410,Wunderground v.1.15,2013-02-08 17:43:00,
2013-02-08 10:48:00,57.0,19.5,29.92,South,187,12.0,14.0,23,0.00,,,0.00,446,Wunderground v.1.15,2013-02-08 17:48:00,
2013-02-08 10:53:00,57.5,17.8,29.91,SW,214,12.0,20.0,21,0.00,,,0.00,476,Wunderground v.1.15,2013-02-08 17:53:00,
2013-02-08 10:59:00,57.5,16.7,29.91,SSW,212,12.0,20.0,20,0.00,,,0.00,490,Wunderground v.1.15,2013-02-08 17:59:00,
2013-02-08 11:04:00,57.7,16.8,29.92,SW,229,13.0,16.0,20,0.00,,,0.00,459,Wunderground v.1.15,2013-02-08 18:04:00,
2013-02-08 11:09:00,57.7,16.8,29.92,SW,231,12.0,16.0,20,0.00,,,0.00,478,Wunderground v.1.15,2013-02-08 18:09:00,
2013-02-08 11:15:00,58.2,14.8,29.92,SSW,209,11.0,14.0,18,0.00,,,0.00,531,Wunderground v.1.15,2013-02-08 18:15:00,
2013-02-08 11:20:00,59.0,12.8,29.92,SSW,201,11.0,15.0,16,0.00,,,0.00,462,Wunderground v.1.15,2013-02-08 18:20:00,
2013-02-08 11:26:00,58.5,13.8,29.92,SSW,202,12.0,19.0,17,0.00,,,0.00,621,Wunderground v.1.15,2013-02-08 18:26:00,
2013-02-08 11:31:00,58.2,14.8,29.92,SW,224,13.0,13.0,18,0.00,,,0.00,619,Wunderground v.1.15,2013-02-08 18:31:00,
2013-02-08 11:37:00,58.5,15.1,29.92,SSW,198,11.0,14.0,18,0.00,,,0.00,566,Wunderground v.1.15,2013-02-08 18:37:00,
2013-02-08 11:43:00,58.8,15.3,29.91,SSW,197,11.0,17.0,18,0.00,,,0.00,647,Wunderground v.1.15,2013-02-08 18:43:00,
2013-02-08 11:48:00,59.0,16.7,29.91,SW,230,12.0,17.0,19,0.00,,,0.00,573,Wunderground v.1.15,2013-02-08 18:48:00,
2013-02-08 11:53:00,59.3,15.7,29.90,SW,231,12.0,15.0,18,0.00,,,0.00,777,Wunderground v.1.15,2013-02-08 18:53:00,
2013-02-08 11:58:00,59.6,17.2,29.90,SW,232,12.0,15.0,19,0.00,,,0.00,700,Wunderground v.1.15,2013-02-08 18:58:00,
2013-02-08 12:03:00,59.7,17.3,29.90,SSW,206,11.0,15.0,19,0.00,,,0.00,673,Wunderground v.1.15,2013-02-08 19:03:00,
2013-02-08 12:08:00,59.8,16.1,29.89,SW,214,12.0,15.0,18,0.00,,,0.00,729,Wunderground v.1.15,2013-02-08 19:08:00,
2013-02-08 12:14:00,60.1,16.4,29.89,SW,229,12.0,14.0,18,0.00,,,0.00,686,Wunderground v.1.15,2013-02-08 19:14:00,
2013-02-08 12:20:00,60.1,15.1,29.89,SSW,198,12.0,13.0,17,0.00,,,0.00,679,Wunderground v.1.15,2013-02-08 19:20:00,
2013-02-08 12:26:00,60.3,15.2,29.89,SW,223,13.0,16.0,17,0.00,,,0.00,759,Wunderground v.1.15,2013-02-08 19:26:00,
2013-02-08 12:31:00,60.5,18.0,29.88,SW,215,12.0,16.0,19,0.00,,,0.00,782,Wunderground v.1.15,2013-02-08 19:31:00,
2013-02-08 12:36:00,60.4,13.9,29.88,SW,224,13.0,16.0,16,0.00,,,0.00,682,Wunderground v.1.15,2013-02-08 19:36:00,
2013-02-08 12:41:00,60.7,15.6,29.88,SW,228,12.0,15.0,17,0.00,,,0.00,601,Wunderground v.1.15,2013-02-08 19:41:00,
2013-02-08 12:47:00,61.4,13.3,29.87,SW,236,12.0,19.0,15,0.00,,,0.00,717,Wunderground v.1.15,2013-02-08 19:47:00,
2013-02-08 12:52:00,60.9,12.9,29.87,WSW,250,13.0,17.0,15,0.00,,,0.00,726,Wunderground v.1.15,2013-02-08 19:52:00,
2013-02-08 12:58:00,61.0,14.4,29.86,SW,221,14.0,17.0,16,0.00,,,0.00,705,Wunderground v.1.15,2013-02-08 19:58:00,
2013-02-08 13:04:00,61.4,2.0,29.86,WSW,250,13.0,16.0,9,0.00,,,0.00,712,Wunderground v.1.15,2013-02-08 20:04:00,
2013-02-08 13:09:00,61.8,2.3,29.86,SW,236,14.0,16.0,9,0.00,,,0.00,737,Wunderground v.1.15,2013-02-08 20:09:00,
2013-02-08 13:15:00,61.5,-0.5,29.85,SW,229,15.0,18.0,8,0.00,,,0.00,710,Wunderground v.1.15,2013-02-08 20:15:00,
2013-02-08 13:20:00,61.5,-0.5,29.85,SW,230,15.0,15.0,8,0.00,,,0.00,649,Wunderground v.1.15,2013-02-08 20:20:00,
2013-02-08 13:26:00,61.3,-3.5,29.85,WSW,256,16.0,21.0,7,0.00,,,0.00,642,Wunderground v.1.15,2013-02-08 20:26:00,
2013-02-08 13:32:00,61.6,-3.2,29.85,SW,230,16.0,19.0,7,0.00,,,0.00,547,Wunderground v.1.15,2013-02-08 20:32:00,
2013-02-08 13:37:00,61.4,-0.6,29.84,SW,228,15.0,20.0,8,0.00,,,0.00,529,Wunderground v.1.15,2013-02-08 20:37:00,
2013-02-08 13:42:00,61.6,-0.4,29.84,WSW,238,16.0,20.0,8,0.00,,,0.00,668,Wunderground v.1.15,2013-02-08 20:42:00,
2013-02-08 13:49:00,61.7,-0.3,29.84,SW,236,16.0,22.0,8,0.00,,,0.00,737,Wunderground v.1.15,2013-02-08 20:49:00,
2013-02-08 13:54:00,62.0,2.4,29.84,SW,225,16.0,23.0,9,0.00,,,0.00,724,Wunderground v.1.15,2013-02-08 20:54:00,
2013-02-08 13:59:00,62.6,5.2,29.84,SW,221,14.0,23.0,10,0.00,,,0.00,821,Wunderground v.1.15,2013-02-08 20:59:00,
2013-02-08 14:04:00,62.3,2.6,29.84,WSW,246,15.0,18.0,9,0.00,,,0.00,568,Wunderground v.1.15,2013-02-08 21:04:00,
2013-02-08 14:10:00,62.6,7.3,29.84,SSW,213,14.0,14.0,11,0.00,,,0.00,860,Wunderground v.1.15,2013-02-08 21:10:00,
2013-02-08 14:15:00,62.7,5.2,29.83,SSW,213,14.0,20.0,10,0.00,,,0.00,649,Wunderground v.1.15,2013-02-08 21:15:00,
2013-02-08 14:21:00,62.0,8.7,29.84,WSW,254,16.0,16.0,12,0.00,,,0.00,679,Wunderground v.1.15,2013-02-08 21:21:00,
2013-02-08 14:26:00,61.8,6.6,29.83,SW,222,15.0,16.0,11,0.00,,,0.00,568,Wunderground v.1.15,2013-02-08 21:26:00,
2013-02-08 14:32:00,61.6,8.4,29.83,SW,217,13.0,15.0,12,0.00,,,0.00,557,Wunderground v.1.15,2013-02-08 21:32:00,
2013-02-08 14:37:00,62.0,6.8,29.83,SSW,213,14.0,17.0,11,0.00,,,0.00,527,Wunderground v.1.15,2013-02-08 21:37:00,
2013-02-08 14:42:00,61.5,4.3,29.83,SW,217,13.0,18.0,10,0.00,,,0.00,483,Wunderground v.1.15,2013-02-08 21:42:00,
2013-02-08 14:48:00,61.0,3.9,29.83,SW,228,13.0,18.0,10,0.00,,,0.00,455,Wunderground v.1.15,2013-02-08 21:48:00,
2013-02-08 14:53:00,61.0,6.0,29.83,SW,233,14.0,14.0,11,0.00,,,0.00,512,Wunderground v.1.15,2013-02-08 21:53:00,
2013-02-08 14:58:00,61.4,4.2,29.82,SW,223,12.0,14.0,10,0.00,,,0.00,580,Wunderground v.1.15,2013-02-08 21:58:00,
2013-02-08 15:03:00,61.5,6.4,29.82,SW,228,12.0,16.0,11,0.00,,,0.00,496,Wunderground v.1.15,2013-02-08 22:03:00,
2013-02-08 15:09:00,61.1,6.1,29.82,SW,227,13.0,19.0,11,0.00,,,0.00,373,Wunderground v.1.15,2013-02-08 22:09:00,
2013-02-08 15:15:00,60.8,5.9,29.82,SW,224,12.0,16.0,11,0.00,,,0.00,367,Wunderground v.1.15,2013-02-08 22:15:00,
2013-02-08 15:20:00,60.7,7.7,29.82,SW,224,12.0,14.0,12,0.00,,,0.00,357,Wunderground v.1.15,2013-02-08 22:20:00,
2013-02-08 15:25:00,60.5,7.5,29.81,SW,223,12.0,14.0,12,0.00,,,0.00,346,Wunderground v.1.15,2013-02-08 22:25:00,
2013-02-08 15:31:00,60.4,5.6,29.82,WSW,239,12.0,16.0,11,0.00,,,0.00,383,Wunderground v.1.15,2013-02-08 22:31:00,
2013-02-08 15:36:00,60.3,7.4,29.81,SW,228,13.0,16.0,12,0.00,,,0.00,364,Wunderground v.1.15,2013-02-08 22:36:00,
2013-02-08 15:42:00,60.0,7.2,29.81,SW,230,12.0,13.0,12,0.00,,,0.00,290,Wunderground v.1.15,2013-02-08 22:42:00,
2013-02-08 15:47:00,59.8,8.8,29.81,SW,225,12.0,15.0,13,0.00,,,0.00,292,Wunderground v.1.15,2013-02-08 22:47:00,
2013-02-08 15:52:00,59.8,8.8,29.81,SSW,213,11.0,12.0,13,0.00,,,0.00,262,Wunderground v.1.15,2013-02-08 22:52:00,
2013-02-08 15:58:00,59.5,8.5,29.81,SW,219,10.0,14.0,13,0.00,,,0.00,264,Wunderground v.1.15,2013-02-08 22:58:00,
2013-02-08 16:03:00,59.1,8.2,29.81,SSW,196,11.0,15.0,13,0.00,,,0.00,260,Wunderground v.1.15,2013-02-08 23:03:00,
2013-02-08 16:08:00,58.8,9.6,29.81,SW,221,12.0,17.0,14,0.00,,,0.00,223,Wunderground v.1.15,2013-02-08 23:08:00,
2013-02-08 16:13:00,58.6,9.5,29.81,SW,227,12.0,16.0,14,0.00,,,0.00,225,Wunderground v.1.15,2013-02-08 23:13:00,
2013-02-08 16:19:00,58.5,9.4,29.81,SW,225,11.0,22.0,14,0.00,,,0.00,225,Wunderground v.1.15,2013-02-08 23:19:00,
2013-02-08 16:24:00,58.1,9.1,29.81,SSW,198,12.0,14.0,14,0.00,,,0.00,197,Wunderground v.1.15,2013-02-08 23:24:00,
2013-02-08 16:30:00,57.8,10.4,29.81,SW,234,13.0,13.0,15,0.00,,,0.00,169,Wunderground v.1.15,2013-02-08 23:30:00,
2013-02-08 16:35:00,57.8,11.8,29.81,SSW,204,12.0,15.0,16,0.00,,,0.00,155,Wunderground v.1.15,2013-02-08 23:35:00,
2013-02-08 16:40:00,57.7,11.7,29.81,SW,216,11.0,11.0,16,0.00,,,0.00,142,Wunderground v.1.15,2013-02-08 23:40:00,
2013-02-08 16:45:00,57.5,13.0,29.81,SW,214,11.0,14.0,17,0.00,,,0.00,132,Wunderground v.1.15,2013-02-08 23:45:00,
2013-02-08 16:51:00,57.2,12.7,29.81,SW,229,12.0,12.0,17,0.00,,,0.00,116,Wunderground v.1.15,2013-02-08 23:51:00,
2013-02-08 16:57:00,56.9,12.5,29.81,SSW,192,11.0,18.0,17,0.00,,,0.00,100,Wunderground v.1.15,2013-02-08 23:57:00,
2013-02-08 17:02:00,56.7,12.3,29.81,SSW,209,11.0,11.0,17,0.00,,,0.00,88,Wunderground v.1.15,2013-02-09 00:02:00,
2013-02-08 17:08:00,56.5,12.1,29.81,SW,235,12.0,22.0,17,0.00,,,0.00,77,Wunderground v.1.15,2013-02-09 00:08:00,
2013-02-08 17:14:00,56.3,13.3,29.81,SSW,205,13.0,16.0,18,0.00,,,0.00,70,Wunderground v.1.15,2013-02-09 00:14:00,
2013-02-08 17:19:00,56.0,14.3,29.80,WSW,240,13.0,20.0,19,0.00,,,0.00,58,Wunderground v.1.15,2013-02-09 00:19:00,
2013-02-08 17:24:00,55.8,15.3,29.80,SW,232,13.0,21.0,20,0.00,,,0.00,47,Wunderground v.1.15,2013-02-09 00:24:00,
2013-02-08 17:29:00,55.7,16.3,29.80,WSW,241,14.0,21.0,21,0.00,,,0.00,40,Wunderground v.1.15,2013-02-09 00:29:00,
2013-02-08 17:35:00,55.4,16.1,29.80,SW,223,13.0,14.0,21,0.00,,,0.00,32,Wunderground v.1.15,2013-02-09 00:35:00,
2013-02-08 17:41:00,55.2,17.0,29.80,WSW,242,12.0,17.0,22,0.00,,,0.00,23,Wunderground v.1.15,2013-02-09 00:41:00,
2013-02-08 17:47:00,55.0,16.8,29.80,SW,223,13.0,17.0,22,0.00,,,0.00,18,Wunderground v.1.15,2013-02-09 00:47:00,
2013-02-08 17:52:00,54.8,17.7,29.80,SW,220,12.0,19.0,23,0.00,,,0.00,12,Wunderground v.1.15,2013-02-09 00:52:00,
2013-02-08 17:57:00,54.6,17.5,29.79,SW,227,12.0,19.0,23,0.00,,,0.00,9,Wunderground v.1.15,2013-02-09 00:57:00,
2013-02-08 18:03:00,54.5,17.4,29.80,SSW,209,15.0,18.0,23,0.00,,,0.00,5,Wunderground v.1.15,2013-02-09 01:03:00,
2013-02-08 18:09:00,54.2,17.1,29.80,SW,222,15.0,18.0,23,0.00,,,0.00,5,Wunderground v.1.15,2013-02-09 01:09:00,
2013-02-08 18:14:00,54.1,17.1,29.80,SSW,198,14.0,22.0,23,0.00,,,0.00,0,Wunderground v.1.15,2013-02-09 01:14:00,
2013-02-08 18:19:00,53.9,16.9,29.80,SW,224,14.0,22.0,23,0.00,,,0.00,0,Wunderground v.1.15,2013-02-09 01:19:00,
2013-02-08 18:24:00,53.7,16.7,29.79,SSW,200,13.0,17.0,23,0.00,,,0.00,0,Wunderground v.1.15,2013-02-09 01:24:00,
2013-02-08 18:30:00,53.5,16.6,29.79,SW,220,12.0,14.0,23,0.00,,,0.00,0,Wunderground v.1.15,2013-02-09 01:30:00,
2013-02-08 18:35:00,53.3,16.4,29.80,SW,218,12.0,16.0,23,0.00,,,0.00,0,Wunderground v.1.15,2013-02-09 01:35:00,
2013-02-08 18:40:00,53.3,16.4,29.79,SW,234,13.0,13.0,23,0.00,,,0.00,0,Wunderground v.1.15,2013-02-09 01:40:00,
2013-02-08 18:46:00,53.0,16.1,29.80,SSW,192,12.0,17.0,23,0.00,,,0.00,0,Wunderground v.1.15,2013-02-09 01:46:00,
2013-02-08 18:52:00,52.8,16.9,29.80,SSW,207,11.0,11.0,24,0.00,,,0.00,0,Wunderground v.1.15,2013-02-09 01:52:00,
2013-02-08 18:58:00,52.5,16.7,29.80,SW,219,11.0,13.0,24,0.00,,,0.00,0,Wunderground v.1.15,2013-02-09 01:58:00,
2013-02-08 19:04:00,52.4,16.6,29.80,SW,229,11.0,11.0,24,0.00,,,0.00,0,Wunderground v.1.15,2013-02-09 02:04:00,
2013-02-08 19:10:00,52.3,16.5,29.80,SSW,209,11.0,11.0,24,0.00,,,0.00,0,Wunderground v.1.15,2013-02-09 02:10:00,
2013-02-08 19:15:00,52.2,15.5,29.81,SW,225,11.0,11.0,23,0.00,,,0.00,0,Wunderground v.1.15,2013-02-09 02:15:00,
2013-02-08 19:21:00,51.8,16.1,29.81,SW,229,11.0,16.0,24,0.00,,,0.00,0,Wunderground v.1.15,2013-02-09 02:21:00,
2013-02-08 19:27:00,51.5,15.8,29.80,SW,225,11.0,12.0,24,0.00,,,0.00,0,Wunderground v.1.15,2013-02-09 02:27:00,
2013-02-08 19:32:00,51.4,15.8,29.80,WSW,250,11.0,12.0,24,0.00,,,0.00,0,Wunderground v.1.15,2013-02-09 02:32:00,
2013-02-08 19:38:00,51.2,15.6,29.80,SW,222,10.0,13.0,24,0.00,,,0.00,0,Wunderground v.1.15,2013-02-09 02:38:00,
2013-02-08 19:44:00,51.0,16.4,29.80,WSW,238,10.0,10.0,25,0.00,,,0.00,0,Wunderground v.1.15,2013-02-09 02:44:00,
2013-02-08 19:50:00,50.9,16.3,29.80,WSW,237,9.0,11.0,25,0.00,,,0.00,0,Wunderground v.1.15,2013-02-09 02:50:00,
2013-02-08 19:55:00,50.9,16.3,29.80,SW,236,9.0,11.0,25,0.00,,,0.00,0,Wunderground v.1.15,2013-02-09 02:55:00,
2013-02-08 20:00:00,50.8,17.1,29.80,SW,229,9.0,12.0,26,0.00,,,0.00,0,Wunderground v.1.15,2013-02-09 03:00:00,
2013-02-08 20:06:00,50.7,17.0,29.80,West,270,9.0,12.0,26,0.00,,,0.00,0,Wunderground v.1.15,2013-02-09 03:06:00,
2013-02-08 20:11:00,50.7,17.9,29.80,SSW,209,9.0,9.0,27,0.00,,,0.00,0,Wunderground v.1.15,2013-02-09 03:11:00,
2013-02-08 20:16:00,50.5,18.6,29.80,SW,226,9.0,10.0,28,0.00,,,0.00,0,Wunderground v.1.15,2013-02-09 03:16:00,
2013-02-08 20:22:00,50.3,18.4,29.80,SW,223,8.0,11.0,28,0.00,,,0.00,0,Wunderground v.1.15,2013-02-09 03:22:00,
2013-02-08 20:27:00,50.2,18.3,29.80,SW,227,8.0,11.0,28,0.00,,,0.00,0,Wunderground v.1.15,2013-02-09 03:27:00,
2013-02-08 20:32:00,50.3,18.4,29.81,SW,227,8.0,13.0,28,0.00,,,0.00,0,Wunderground v.1.15,2013-02-09 03:32:00,
2013-02-08 20:37:00,50.2,19.1,29.81,SW,230,9.0,13.0,29,0.00,,,0.00,0,Wunderground v.1.15,2013-02-09 03:37:00,
2013-02-08 20:43:00,50.2,19.1,29.81,SW,229,10.0,13.0,29,0.00,,,0.00,0,Wunderground v.1.15,2013-02-09 03:43:00,
2013-02-08 20:49:00,50.0,18.9,29.80,SSW,213,10.0,13.0,29,0.00,,,0.00,0,Wunderground v.1.15,2013-02-09 03:49:00,
2013-02-08 20:55:00,50.0,18.9,29.81,SSW,207,10.0,15.0,29,0.00,,,0.00,0,Wunderground v.1.15,2013-02-09 03:55:00,
2013-02-08 21:01:00,49.9,18.9,29.81,SW,234,11.0,12.0,29,0.00,,,0.00,0,Wunderground v.1.15,2013-02-09 04:01:00,
2013-02-08 21:06:00,49.8,19.6,29.80,SSW,211,11.0,15.0,30,0.00,,,0.00,0,Wunderground v.1.15,2013-02-09 04:06:00,
2013-02-08 21:13:00,49.5,19.3,29.80,SW,221,11.0,12.0,30,0.00,,,0.00,0,Wunderground v.1.15,2013-02-09 04:13:00,
2013-02-08 21:18:00,49.4,20.0,29.80,WSW,243,10.0,12.0,31,0.00,,,0.00,0,Wunderground v.1.15,2013-02-09 04:18:00,
2013-02-08 21:23:00,49.4,20.0,29.80,SW,223,11.0,17.0,31,0.00,,,0.00,0,Wunderground v.1.15,2013-02-09 04:23:00,
2013-02-08 21:29:00,49.1,20.5,29.79,SW,230,11.0,17.0,32,0.00,,,0.00,0,Wunderground v.1.15,2013-02-09 04:29:00,
2013-02-08 21:34:00,48.9,20.3,29.80,SW,223,10.0,11.0,32,0.00,,,0.00,0,Wunderground v.1.15,2013-02-09 04:34:00,
2013-02-08 21:40:00,48.8,20.9,29.79,SSW,213,10.0,11.0,33,0.00,,,0.00,0,Wunderground v.1.15,2013-02-09 04:40:00,
2013-02-08 21:45:00,48.5,20.7,29.79,WSW,242,9.0,10.0,33,0.00,,,0.00,0,Wunderground v.1.15,2013-02-09 04:45:00,
2013-02-08 21:50:00,48.4,21.3,29.79,SW,222,8.0,8.0,34,0.00,,,0.00,0,Wunderground v.1.15,2013-02-09 04:50:00,
2013-02-08 21:55:00,48.2,21.8,29.79,SW,219,8.0,9.0,35,0.00,,,0.00,0,Wunderground v.1.15,2013-02-09 04:55:00,
2013-02-08 22:00:00,47.9,22.2,29.79,SW,225,7.0,7.0,36,0.00,,,0.00,0,Wunderground v.1.15,2013-02-09 05:00:00,
2013-02-08 22:01:00,47.9,22.2,29.79,SW,232,7.0,7.0,36,0.00,,,0.00,0,Wunderground v.1.15,2013-02-09 05:01:00,
2013-02-08 22:03:00,47.8,22.1,29.79,WSW,238,6.0,7.0,36,0.00,,,0.00,0,Wunderground v.1.15,2013-02-09 05:03:00,
2013-02-08 22:05:00,47.8,22.1,29.78,SW,229,7.0,11.0,36,0.00,,,0.00,0,Wunderground v.1.15,2013-02-09 05:05:00,
2013-02-08 22:11:00,47.7,22.7,29.78,WSW,244,7.0,7.0,37,0.00,,,0.00,0,Wunderground v.1.15,2013-02-09 05:11:00,
2013-02-08 22:16:00,47.7,23.3,29.78,SW,232,7.0,8.0,38,0.00,,,0.00,0,Wunderground v.1.15,2013-02-09 05:16:00,
2013-02-08 22:21:00,47.6,23.2,29.78,SW,229,7.0,8.0,38,0.00,,,0.00,0,Wunderground v.1.15,2013-02-09 05:21:00,
2013-02-08 22:27:00,47.4,23.7,29.78,SW,221,7.0,9.0,39,0.00,,,0.00,0,Wunderground v.1.15,2013-02-09 05:27:00,
2013-02-08 22:32:00,47.2,24.1,29.77,SW,219,6.0,8.0,40,0.00,,,0.00,0,Wunderground v.1.15,2013-02-09 05:32:00,
2013-02-08 22:38:00,47.0,23.9,29.77,SW,220,6.0,8.0,40,0.00,,,0.00,0,Wunderground v.1.15,2013-02-09 05:38:00,
2013-02-08 22:43:00,47.0,24.5,29.77,SSW,213,6.0,8.0,41,0.00,,,0.00,0,Wunderground v.1.15,2013-02-09 05:43:00,
2013-02-08 22:48:00,46.9,24.4,29.77,SSW,213,7.0,9.0,41,0.00,,,0.00,0,Wunderground v.1.15,2013-02-09 05:48:00,
2013-02-08 22:54:00,46.8,24.9,29.76,SW,219,7.0,10.0,42,0.00,,,0.00,0,Wunderground v.1.15,2013-02-09 05:54:00,
2013-02-08 23:00:00,46.6,24.7,29.76,WSW,245,7.0,7.0,42,0.00,,,0.00,0,Wunderground v.1.15,2013-02-09 06:00:00,
2013-02-08 23:05:00,46.4,25.1,29.76,SW,217,8.0,10.0,43,0.00,,,0.00,0,Wunderground v.1.15,2013-02-09 06:05:00,
2013-02-08 23:10:00,46.3,25.6,29.76,SW,227,8.0,10.0,44,0.00,,,0.00,0,Wunderground v.1.15,2013-02-09 06:10:00,
2013-02-08 23:16:00,46.1,25.4,29.76,WSW,242,8.0,12.0,44,0.00,,,0.00,0,Wunderground v.1.15,2013-02-09 06:16:00,
2013-02-08 23:21:00,46.1,25.4,29.76,WSW,245,8.0,8.0,44,0.00,,,0.00,0,Wunderground v.1.15,2013-02-09 06:21:00,
2013-02-08 23:26:00,46.1,24.8,29.76,SW,220,9.0,10.0,43,0.00,,,0.00,0,Wunderground v.1.15,2013-02-09 06:26:00,
2013-02-08 23:31:00,46.1,24.8,29.75,SW,230,9.0,9.0,43,0.00,,,0.00,0,Wunderground v.1.15,2013-02-09 06:31:00,
2013-02-08 23:37:00,46.0,24.7,29.75,SSW,213,8.0,9.0,43,0.00,,,0.00,0,Wunderground v.1.15,2013-02-09 06:37:00,
2013-02-08 23:42:00,46.0,24.7,29.75,SW,219,8.0,11.0,43,0.00,,,0.00,0,Wunderground v.1.15,2013-02-09 06:42:00,
2013-02-08 23:48:00,46.2,25.5,29.75,SW,226,9.0,12.0,44,0.00,,,0.00,0,Wunderground v.1.15,2013-02-09 06:48:00,
2013-02-08 23:54:00,46.2,25.5,29.75,WSW,241,9.0,14.0,44,0.00,,,0.00,0,Wunderground v.1.15,2013-02-09 06:54:00,
2013-02-08 23:59:00,46.2,25.5,29.75,WSW,239,10.0,14.0,44,0.00,,,0.00,0,Wunderground v.1.15,2013-02-09 06:59:00,